Zurück zum Katalog

STARLINK-37165

AktivKommunikationVLEO
NORAD 68287·PAYLOAD·🇺🇸 United States

Gestartet Mar 19, 2026 von Vandenberg Space Force Base

Loading…

Nächste Überflüge (nächste 24 Stunden)

TLE

AktuellSource: CelesTrak SupGP

Epoche: Sep 14, 2026, 21:32 UTC

1 68287C 26055AB  26257.89770833 -.00054534  00000+0 -16108-2 0  2573
2 68287  53.1571 155.7435 0001313 101.2392 309.4403 15.34426176    14

Verfolge STARLINK-37165 in Echtzeit mit AllMySat

Download on the App Store